Retour au catalogue

ONEWEB-0213

ActifCommunicationsPO
NORAD 48790·PAYLOAD·🇬🇧 United Kingdom

Lancé May 28, 2021 depuis Vostochny Cosmodrome

Loading…

Prochains Passages (prochaines 24 heures)

TLE

FraisSource: CelesTrak SupGP

Époque: Sep 15, 2026, 01:31 UTC

1 48790C 21045Z   26258.06337222 -.00004291  00000+0 -11412-1 0  2583
2 48790  87.8986 241.2784 0002181  79.5596 312.7162 13.15551216    10

Suivez ONEWEB-0213 en temps réel avec AllMySat

Download on the App Store